Weather in Chainsk

Russia / Tomsk District     57°55′46″N   82°35′43″E
temp.,
°C
wind,
m/s
gust,
m/s
humid.,
%
clouds,
%
prec.,
mm/h
press.,
hPa
HPBL,
m
26 february, fri
fri2601:00−25ssw379797 0.2 1017198
04:00−27ssw259899 0.0 1017119
07:00−28sw229996 0.1 102020
10:00−29w249868 0.0 1022128
13:00−25w249375 0.0 1024384
16:00−23wsw368896 0.0 1026722
19:00−25w269598 0.1 1028243
22:00−26wsw279799 0.0 1030321
27 february, sat
sat2701:00−26wsw2697100 0.1 1031351
04:00−27sw2697100 0.1 1031267
07:00−29sw269899 0.1 1032184
10:00−29wsw359799 0.0 1033246
13:00−25sw249195 0.1 1034485
16:00−23sw3590100 0.0 1034610
19:00−25sw2396100 0.1 103425
22:00−28sw249893 0.0 103580
28 february, sun
sun2801:00−30sw239850 0.0 103672
04:00−31sw23980 0.0 103645
07:00−32ssw23980 0.0 103746
10:00−30ssw25970 0.0 1037140
13:00−24s249418 0.0 1036287
16:00−20sse249191 0.0 1034396
19:00−23se239790 0.0 103259
22:00−23se3896100 0.0 1031240
1 march, mon
mon101:00−23ese3895100 0.0 1028235
04:00−22e4109597 0.0 1024266
07:00−21e499699 0.0 1021320
10:00−18e4995100 0.1 1018379
13:00−14e4893100 0.3 1015424
16:00−13ene4893100 0.3 1013455
19:00−13ene3795100 0.5 1012319
22:00−15ene279699 0.1 1013277
2 march, tue
tue201:00−16ene249799 0.2 1012138
04:00−16ene2397100 0.3 1012121
07:00−17ene1297100 0.5 101156
10:00−16ne1296100 0.2 1011123
13:00−13nne1290100 0.3 1011333
16:00−11n1189100 0.1 1011448
19:00−15nne1296100 0.1 101121
22:00−19n129984 0.0 101220